Location: Unspecified
(0.0000°N, 0.0000°E)
Time: 09:09:31
(UTC+00:00)

Vanguard 2 Rocket - All Passes

Search period start: 03 April 2020 00:00
Search period end: 13 April 2020 00:00
Orbit: 554 x 3326 km, 32.9° (Epoch: 02 April)

Date Brightness Start Highest point End Pass type
(mag) Time Alt. Az. Time Alt. Az. Time Alt. Az.
03 Apr - 01:32:40 10° SSW 01:39:49 20° SSE 01:44:54 10° ESE night (unlit)
03 Apr - 03:47:49 10° SW 03:55:07 73° SSE 03:59:40 10° ENE visible
03 Apr - 12:51:22 10° N 12:58:31 21° NE 13:08:35 10° E daylight
03 Apr - 15:01:59 10° NW 15:14:22 69° NE 15:33:49 10° ESE daylight
03 Apr - 17:16:55 10° WNW 17:32:43 55° SSW 17:52:34 10° SE daylight
03 Apr - 19:38:59 10° WSW 19:54:04 26° SSW 20:08:25 10° SSE visible
03 Apr - 22:09:11 10° SSW 22:17:30 14° S 22:24:29 10° SSE visible
04 Apr - 00:31:06 10° SSW 00:38:38 17° SSE 00:44:13 10° SE night (unlit)
04 Apr - 02:46:50 10° SW 02:55:24 44° SSE 03:00:32 10° E visible
04 Apr - 05:03:56 10° W 05:08:27 24° NW 05:11:56 10° NNE visible
04 Apr - 11:55:46 10° NNE 11:57:55 11° NE 12:00:17 10° NE daylight
04 Apr - 14:02:53 10° NNW 14:13:16 49° NE 14:30:09 10° ESE daylight
04 Apr - 16:16:06 10° WNW 16:30:18 70° SW 16:50:40 10° SE daylight
04 Apr - 18:34:59 10° W 18:50:42 33° SSW 19:07:31 10° SSE visible
04 Apr - 21:02:50 10° SW 21:14:00 17° S 21:23:41 10° SSE visible
04 Apr - 23:28:36 10° SSW 23:36:44 16° S 23:43:04 10° SE visible
05 Apr - 01:45:37 10° SW 01:55:06 32° SSE 02:00:58 10° E night (unlit)
05 Apr - 04:02:14 10° WSW 04:09:20 53° NW 04:13:50 10° NE visible
05 Apr - 13:04:25 10° NNW 13:12:41 32° NE 13:25:38 10° E daylight
05 Apr - 15:16:04 10° NW 15:28:25 88° SW 15:48:13 10° SE daylight
05 Apr - 17:32:26 10° W 17:47:36 41° SSW 18:06:10 10° SE daylight
05 Apr - 19:56:52 10° WSW 20:10:13 21° SSW 20:22:41 10° SSE visible
05 Apr - 22:24:55 10° SSW 22:34:06 16° S 22:41:32 10° SE visible
06 Apr - 00:44:01 10° SSW 00:54:14 26° SSE 01:00:55 10° ESE night (unlit)
06 Apr - 03:00:42 10° SW 03:09:56 84° SE 03:15:12 10° ENE visible
06 Apr - 05:21:18 10° NW 05:22:31 11° NW 05:23:41 10° NNW visible
06 Apr - 12:06:49 10° N 12:12:25 18° NE 12:20:06 10° ENE daylight
06 Apr - 14:16:41 10° NW 14:27:12 70° NE 14:45:09 10° ESE daylight
06 Apr - 16:31:03 10° WNW 16:44:55 52° SSW 17:04:22 10° SE daylight
06 Apr - 18:52:05 10° WSW 19:06:27 25° SSW 19:21:24 10° SSE visible
06 Apr - 21:20:07 10° SW 21:30:44 16° S 21:39:47 10° SSE visible
06 Apr - 23:41:54 10° SSW 23:52:42 22° SSE 00:00:15 10° ESE visible
07 Apr - 01:59:04 10° SW 02:10:00 54° SSE 02:16:09 10° ENE night (unlit)
07 Apr - 04:17:32 10° W 04:23:18 26° NW 04:27:21 10° NNE visible
07 Apr - 13:17:52 10° NNW 13:26:36 48° NE 13:41:30 10° ESE daylight
07 Apr - 15:30:34 10° WNW 15:42:47 66° SSW 16:02:09 10° SE daylight
07 Apr - 17:48:43 10° W 18:02:59 31° SSW 18:19:50 10° SSE daylight
07 Apr - 20:14:46 10° SW 20:26:52 18° S 20:37:55 10° SSE visible
07 Apr - 22:39:10 10° SSW 22:50:28 20° S 22:58:56 10° SE visible
08 Apr - 00:57:15 10° SW 01:09:27 40° SSE 01:16:39 10° E night (unlit)
08 Apr - 03:15:12 10° WSW 03:24:05 53° NW 03:29:18 10° NE visible
08 Apr - 12:19:39 10° NNW 12:26:30 29° NE 12:37:13 10° E daylight
08 Apr - 14:30:50 10° WNW 14:41:18 85° SW 14:59:30 10° SE daylight
08 Apr - 16:46:38 10° W 16:59:58 38° SSW 17:17:57 10° SE daylight
08 Apr - 19:09:46 10° SW 19:22:49 21° SSW 19:35:56 10° SSE visible
08 Apr - 21:35:44 10° SSW 21:47:27 18° S 21:56:58 10° SE visible
08 Apr - 23:55:10 10° SW 00:08:16 32° SSE 00:16:33 10° E visible
09 Apr - 02:13:02 10° SW 02:24:29 89° NNW 02:30:43 10° NE visible
09 Apr - 04:34:28 10° WNW 04:37:16 13° NW 04:39:39 10° NNW visible
09 Apr - 11:22:31 10° N 11:26:38 15° NE 11:31:55 10° ENE daylight
09 Apr - 13:31:40 10° NW 13:40:31 71° NE 13:56:28 10° ESE daylight
09 Apr - 15:45:36 10° W 15:57:33 48° SSW 16:15:47 10° SE daylight
09 Apr - 18:05:46 10° WSW 18:18:56 24° SSW 18:33:50 10° SSE visible
09 Apr - 20:31:40 10° SW 20:43:44 18° S 20:54:26 10° SE visible
09 Apr - 22:52:47 10° SSW 23:06:23 27° SSE 23:15:49 10° ESE visible
10 Apr - 01:10:50 10° SW 01:24:17 63° SSE 01:31:39 10° ENE night (unlit)
10 Apr - 03:30:34 10° W 03:37:58 29° NW 03:42:49 10° NNE visible
10 Apr - 12:33:03 10° NNW 12:40:22 46° NE 12:53:03 10° ESE daylight
10 Apr - 14:45:25 10° WNW 14:55:47 61° SSW 15:13:23 10° SE daylight
10 Apr - 17:02:58 10° WSW 17:15:33 29° SSW 17:31:37 10° SSE daylight
10 Apr - 19:27:20 10° SW 19:39:36 19° S 19:51:33 10° SE visible
10 Apr - 21:50:05 10° SSW 22:03:47 23° SSE 22:14:14 10° ESE visible
11 Apr - 00:08:34 10° SW 00:23:26 47° SSE 00:32:05 10° E night (unlit)
11 Apr - 02:27:36 10° WSW 02:38:33 53° NW 02:44:44 10° NE visible
11 Apr - 11:35:03 10° NNW 11:40:39 26° NE 11:49:11 10° E daylight
11 Apr - 13:45:53 10° WNW 13:54:41 81° SW 14:10:45 10° SE daylight
11 Apr - 16:01:17 10° W 16:12:46 35° SSW 16:29:19 10° SE daylight
11 Apr - 18:23:17 10° SW 18:35:26 20° S 18:48:35 10° SSE visible
11 Apr - 20:47:05 10° SSW 21:00:27 21° S 21:11:45 10° SE visible
11 Apr - 23:06:13 10° SW 23:21:53 38° SSE 23:31:54 10° E visible
12 Apr - 01:24:52 10° SW 01:38:40 84° NW 01:46:06 10° NE night (unlit)
12 Apr - 03:47:16 10° WNW 03:51:54 16° NW 03:55:29 10° N visible
12 Apr - 10:38:36 10° NNE 10:41:04 12° NE 10:44:00 10° ENE daylight
12 Apr - 12:46:53 10° NW 12:54:17 72° NE 13:07:58 10° ESE daylight
12 Apr - 15:00:33 10° W 15:10:40 43° SSW 15:26:57 10° SE daylight
12 Apr - 17:20:01 10° WSW 17:31:38 22° SSW 17:45:41 10° SSE daylight
12 Apr - 19:43:50 10° SW 19:56:31 19° S 20:08:26 10° SE visible
12 Apr - 22:03:49 10° SW 22:19:40 31° SSE 22:30:56 10° ESE visible
